OBJECT D

Satellite information

Favourite Embed

Satellite Type and Status

UNKNOWNIN ORBIT

Key statistics

Satellite OBJECT D at a glance.

Uptime

1354

Days in orbit

Revolutions

≈ 15.1

Per day

Orbit

SSO

Sun Synchronous Orbit

Inclination

97.6

Latest

Satellite identification and parameters

Extended collection of information and parameters for OBJECT D.

Object identification

Identified? True

Debris? False

Object name: OBJECT D

International designator: 2022-032D

Object number (NORAD): 52156

Object ID (CCSDS): 52156

Country: PEOPLES REPUBLIC OF CHINA (PRC)

Current information (Y/N): Y

RCS size: MEDIUM

Orbital parameters

Period: 95.429 minutes

Inclination: 97.6104 deg

SMA: 6917.488 km

Apoapsis: 545.106 km

Periapsis: 533.6 km

RAAN: 35.2127 deg

Eccentricy: 0.00083165

Argument of periapsis: 79.587 deg

Mean anomaly: 280.6295 deg

Mean motion: 15.08968272 rev/day

Mean motion (dot): 0.0001329 rev/day2

B* drag term: 0.0008438376 1/REarth

Two-line elements (TLE)

Creation date: Dec. 12, 2025, 10:14 a.m.

Reference frame: TEME

Reference center: EARTH

Epoch: Dec. 12, 2025, 7:20 a.m. UTC

TLE line 0: 0 OBJECT D

TLE line 1: 1 52156U 22032D 25346.30562755 .00013290 00000-0 84384-3 0 9996

TLE line 2: 2 52156 97.6104 35.2127 0008317 79.5870 280.6295 15.08968272202647

Live tracking on map

Real-time ground track for satellite OBJECT D.

In-orbit conjunctions

There are no conjunctions computed for OBJECT D, at the moment. Check back to stay up to date, as we update our databases every day.

Go to all conjunctions

Associated space launch

The Tianping-2 A/B/C satellites were built by the China Aerospace Science and Industry Corporation (CASIC) and will be used as calibration targets for services such as atmospheric space environment study and orbital prediction model correction.

OBJECT D was lifted into orbit during the mission ‘Long March 11 | Tianping-2 A/B/C’, on board a Long March 11 space rocket.

The launch took place on March 30, 2022, 2:29 a.m. from Launch Area 95A.

For more information about the launch, click the button.

Launch to space Long March 11 | Tianping-2 A/B/C
Long March 11 | Tianping-2 A/B/C

Agency: N/A

Status: Launch Successful

Launch date: March 30, 2022, 2:29 a.m. UTC

Rocket: Long March 11

Launch pad: Launch Area 95A

Location: Jiuquan Satellite Launch Center, People's Republic of China

...

Latest news about this satellite

There are no fresh news available about this satellite. Check back as we update our databases every day.


Newsletter sign-up

Weekly statistics, charts and insights to help you stay on top of the space industry.